Year,Month,Day,Hour,Minute,Value (Times are PST for temperature in C)
2010,06,23,00,00,15.00
2010,06,23,00,01,15.00
2010,06,23,00,02,15.00
2010,06,23,00,03,15.00
2010,06,23,00,04,15.00
2010,06,23,00,05,15.00
2010,06,23,00,06,15.00
2010,06,23,00,07,15.00
2010,06,23,00,08,15.00
2010,06,23,00,09,14.90
2010,06,23,00,10,14.90
2010,06,23,00,11,14.80
2010,06,23,00,12,14.80
2010,06,23,00,13,14.70
2010,06,23,00,14,14.70
2010,06,23,00,15,14.70
2010,06,23,00,16,14.60
2010,06,23,00,17,14.60
2010,06,23,00,18,14.60
2010,06,23,00,19,14.50
2010,06,23,00,20,14.50
2010,06,23,00,21,14.40
2010,06,23,00,22,14.40
2010,06,23,00,23,14.40
2010,06,23,00,24,14.40
2010,06,23,00,25,14.40
2010,06,23,00,26,14.30
2010,06,23,00,27,14.30
2010,06,23,00,28,14.30
2010,06,23,00,29,14.30
2010,06,23,00,30,14.30
2010,06,23,00,31,14.20
2010,06,23,00,32,14.20
2010,06,23,00,33,14.20
2010,06,23,00,34,14.20
2010,06,23,00,35,14.20
2010,06,23,00,36,14.20
2010,06,23,00,37,14.20
2010,06,23,00,38,14.20
2010,06,23,00,39,14.20
2010,06,23,00,40,14.20
2010,06,23,00,41,14.20
2010,06,23,00,42,14.20
2010,06,23,00,43,14.20
2010,06,23,00,44,14.20
2010,06,23,00,45,14.20
2010,06,23,00,46,14.20
2010,06,23,00,47,14.30
2010,06,23,00,48,14.30
2010,06,23,00,49,14.30
2010,06,23,00,50,14.30
2010,06,23,00,51,14.30
2010,06,23,00,52,14.30
2010,06,23,00,53,14.30
2010,06,23,00,54,14.30
2010,06,23,00,55,14.30
2010,06,23,00,56,14.30
2010,06,23,00,57,14.30
2010,06,23,00,58,14.30
2010,06,23,00,59,14.30
2010,06,23,01,00,14.30
2010,06,23,01,01,14.30
2010,06,23,01,02,14.30
2010,06,23,01,03,14.30
2010,06,23,01,04,14.30
2010,06,23,01,05,14.30
2010,06,23,01,06,14.30
2010,06,23,01,07,14.30
2010,06,23,01,08,14.30
2010,06,23,01,09,14.30
2010,06,23,01,10,14.30
2010,06,23,01,11,14.30
2010,06,23,01,12,14.30
2010,06,23,01,13,14.30
2010,06,23,01,14,14.30
2010,06,23,01,15,14.30
2010,06,23,01,16,14.30
2010,06,23,01,17,14.30
2010,06,23,01,18,14.30
2010,06,23,01,19,14.30
2010,06,23,01,20,14.30
2010,06,23,01,21,14.30
2010,06,23,01,22,14.30
2010,06,23,01,23,14.30
2010,06,23,01,24,14.30
2010,06,23,01,25,14.40
2010,06,23,01,26,14.40
2010,06,23,01,27,14.40
2010,06,23,01,28,14.40
2010,06,23,01,29,14.40
2010,06,23,01,30,14.40
2010,06,23,01,31,14.50
2010,06,23,01,32,14.50
2010,06,23,01,33,14.50
2010,06,23,01,34,14.50
2010,06,23,01,35,14.50
2010,06,23,01,36,14.50
2010,06,23,01,37,14.50
2010,06,23,01,38,14.50
2010,06,23,01,39,14.50
2010,06,23,01,40,14.50
2010,06,23,01,41,14.50
2010,06,23,01,42,14.50
2010,06,23,01,43,14.50
2010,06,23,01,44,14.50
2010,06,23,01,45,14.50
2010,06,23,01,46,14.50
2010,06,23,01,47,14.50
2010,06,23,01,48,14.50
2010,06,23,01,49,14.50
2010,06,23,01,50,14.50
2010,06,23,01,51,14.50
2010,06,23,01,52,14.50
2010,06,23,01,53,14.50
2010,06,23,01,54,14.50
2010,06,23,01,55,14.50
2010,06,23,01,56,14.50
2010,06,23,01,57,14.60
2010,06,23,01,58,14.60
2010,06,23,01,59,14.60
2010,06,23,02,00,14.60
2010,06,23,02,01,14.60
2010,06,23,02,02,14.70
2010,06,23,02,03,14.70
2010,06,23,02,04,14.70
2010,06,23,02,05,14.70
2010,06,23,02,06,14.70
2010,06,23,02,07,14.70
2010,06,23,02,08,14.70
2010,06,23,02,09,14.70
2010,06,23,02,10,14.70
2010,06,23,02,11,14.70
2010,06,23,02,12,14.70
2010,06,23,02,13,14.70
2010,06,23,02,14,14.60
2010,06,23,02,15,14.60
2010,06,23,02,16,14.60
2010,06,23,02,17,14.60
2010,06,23,02,18,14.60
2010,06,23,02,19,14.60
2010,06,23,02,20,14.60
2010,06,23,02,21,14.60
2010,06,23,02,22,14.60
2010,06,23,02,23,14.60
2010,06,23,02,24,14.50
2010,06,23,02,25,14.50
2010,06,23,02,26,14.50
2010,06,23,02,27,14.50
2010,06,23,02,28,14.60
2010,06,23,02,29,14.60
2010,06,23,02,30,14.60
2010,06,23,02,31,14.60
2010,06,23,02,32,14.60
2010,06,23,02,33,14.60
2010,06,23,02,34,14.60
2010,06,23,02,35,14.50
2010,06,23,02,36,14.50
2010,06,23,02,37,14.40
2010,06,23,02,38,14.40
2010,06,23,02,39,14.30
2010,06,23,02,40,14.30
2010,06,23,02,41,14.20
2010,06,23,02,42,14.10
2010,06,23,02,43,14.10
2010,06,23,02,44,14.00
2010,06,23,02,45,13.90
2010,06,23,02,46,13.90
2010,06,23,02,47,13.80
2010,06,23,02,48,13.80
2010,06,23,02,49,13.80
2010,06,23,02,50,13.70
2010,06,23,02,51,13.70
2010,06,23,02,52,13.60
2010,06,23,02,53,13.50
2010,06,23,02,54,13.50
2010,06,23,02,55,13.40
2010,06,23,02,56,13.40
2010,06,23,02,57,13.40
2010,06,23,02,58,13.30
2010,06,23,02,59,13.30
2010,06,23,03,00,13.30
2010,06,23,03,01,13.30
2010,06,23,03,02,13.30
2010,06,23,03,03,13.20
2010,06,23,03,04,13.20
2010,06,23,03,05,13.20
2010,06,23,03,06,13.20
2010,06,23,03,07,13.20
2010,06,23,03,08,13.10
2010,06,23,03,09,13.10
2010,06,23,03,10,13.10
2010,06,23,03,11,13.10
2010,06,23,03,12,13.10
2010,06,23,03,13,13.10
2010,06,23,03,14,13.10
2010,06,23,03,15,13.10
2010,06,23,03,16,13.10
2010,06,23,03,17,13.10
2010,06,23,03,18,13.10
2010,06,23,03,19,13.00
2010,06,23,03,20,13.10
2010,06,23,03,21,13.10
2010,06,23,03,22,13.10
2010,06,23,03,23,13.10
2010,06,23,03,24,13.10
2010,06,23,03,25,13.10
2010,06,23,03,26,13.10
2010,06,23,03,27,13.10
2010,06,23,03,28,13.10
2010,06,23,03,29,13.20
2010,06,23,03,30,13.10
2010,06,23,03,31,13.20
2010,06,23,03,32,13.20
2010,06,23,03,33,13.20
2010,06,23,03,34,13.20
2010,06,23,03,35,13.20
2010,06,23,03,36,13.10
2010,06,23,03,37,13.10
2010,06,23,03,38,13.10
2010,06,23,03,39,13.10
2010,06,23,03,40,13.10
2010,06,23,03,41,13.10
2010,06,23,03,42,13.00
2010,06,23,03,43,13.00
2010,06,23,03,44,13.00
2010,06,23,03,45,13.00
2010,06,23,03,46,13.00
2010,06,23,03,47,12.90
2010,06,23,03,48,12.90
2010,06,23,03,49,12.90
2010,06,23,03,50,12.90
2010,06,23,03,51,12.90
2010,06,23,03,52,12.90
2010,06,23,03,53,12.90
2010,06,23,03,54,12.90
2010,06,23,03,55,12.90
2010,06,23,03,56,12.90
2010,06,23,03,57,12.90
2010,06,23,03,58,12.90
2010,06,23,03,59,12.90
2010,06,23,04,00,12.90
2010,06,23,04,01,12.90
2010,06,23,04,02,12.90
2010,06,23,04,03,12.90
2010,06,23,04,04,12.90
2010,06,23,04,07,12.80
2010,06,23,04,08,12.80
2010,06,23,04,10,12.80
2010,06,23,04,11,12.80
2010,06,23,04,12,12.90
2010,06,23,04,13,12.90
2010,06,23,04,14,12.90
2010,06,23,04,15,12.90
2010,06,23,04,16,12.90
2010,06,23,04,17,12.90
2010,06,23,04,18,12.90
2010,06,23,04,19,12.90
2010,06,23,04,20,12.90
2010,06,23,04,21,12.90
2010,06,23,04,22,12.90
2010,06,23,04,23,13.00
2010,06,23,04,24,13.00
2010,06,23,04,25,13.10
2010,06,23,04,26,13.10
2010,06,23,04,27,13.20
2010,06,23,04,28,13.20
2010,06,23,04,29,13.30
2010,06,23,04,30,13.30
2010,06,23,04,31,13.30
2010,06,23,04,32,13.30
2010,06,23,04,33,13.30
2010,06,23,04,34,13.30
2010,06,23,04,35,13.30
2010,06,23,04,36,13.30
2010,06,23,04,37,13.30
2010,06,23,04,38,13.30
2010,06,23,04,39,13.30
2010,06,23,04,40,13.30
2010,06,23,04,41,13.30
2010,06,23,04,42,13.30
2010,06,23,04,43,13.30
2010,06,23,04,44,13.30
2010,06,23,04,45,13.30
2010,06,23,04,46,13.30
2010,06,23,04,47,13.20
2010,06,23,04,48,13.20
2010,06,23,04,49,13.20
2010,06,23,04,50,13.10
2010,06,23,04,51,13.00
2010,06,23,04,52,13.00
2010,06,23,04,53,12.90
2010,06,23,04,54,12.90
2010,06,23,04,55,12.90
2010,06,23,04,56,12.90
2010,06,23,04,57,12.80
2010,06,23,04,58,12.80
2010,06,23,04,59,12.80
2010,06,23,05,00,12.80
2010,06,23,05,01,12.80
2010,06,23,05,02,12.80
2010,06,23,05,03,12.70
2010,06,23,05,04,12.70
2010,06,23,05,05,12.70
2010,06,23,05,06,12.70
2010,06,23,05,07,12.70
2010,06,23,05,08,12.60
2010,06,23,05,09,12.60
2010,06,23,05,10,12.60
2010,06,23,05,11,12.60
2010,06,23,05,12,12.60
2010,06,23,05,13,12.60
2010,06,23,05,14,12.60
2010,06,23,05,15,12.60
2010,06,23,05,16,12.60
2010,06,23,05,17,12.60
2010,06,23,05,18,12.60
2010,06,23,05,19,12.60
2010,06,23,05,20,12.60
2010,06,23,05,21,12.60
2010,06,23,05,22,12.60
2010,06,23,05,23,12.60
2010,06,23,05,24,12.60
2010,06,23,05,25,12.60
2010,06,23,05,26,12.60
2010,06,23,05,27,12.60
2010,06,23,05,28,12.60
2010,06,23,05,29,12.50
2010,06,23,05,30,12.60
2010,06,23,05,31,12.60
2010,06,23,05,32,12.60
2010,06,23,05,33,12.60
2010,06,23,05,34,12.60
2010,06,23,05,35,12.60
2010,06,23,05,36,12.60
2010,06,23,05,37,12.60
2010,06,23,05,38,12.60
2010,06,23,05,39,12.60
2010,06,23,05,40,12.60
2010,06,23,05,41,12.70
2010,06,23,05,42,12.70
2010,06,23,05,43,12.70
2010,06,23,05,44,12.70
2010,06,23,05,45,12.70
2010,06,23,05,46,12.70
2010,06,23,05,47,12.70
2010,06,23,05,48,12.70
2010,06,23,05,49,12.60
2010,06,23,05,50,12.60
2010,06,23,05,51,12.60
2010,06,23,05,52,12.60
2010,06,23,05,53,12.60
2010,06,23,05,54,12.60
2010,06,23,05,55,12.60
2010,06,23,05,56,12.60
2010,06,23,05,57,12.60
2010,06,23,05,58,12.60
2010,06,23,05,59,12.60
2010,06,23,06,00,12.60
2010,06,23,06,01,12.60
2010,06,23,06,02,12.70
2010,06,23,06,03,12.70
2010,06,23,06,04,12.70
2010,06,23,06,05,12.70
2010,06,23,06,06,12.70
2010,06,23,06,07,12.70
2010,06,23,06,08,12.70
2010,06,23,06,09,12.70
2010,06,23,06,10,12.70
2010,06,23,06,11,12.70
2010,06,23,06,12,12.70
2010,06,23,06,13,12.70
2010,06,23,06,14,12.70
2010,06,23,06,15,12.70
2010,06,23,06,16,12.80
2010,06,23,06,17,12.80
2010,06,23,06,18,12.80
2010,06,23,06,19,12.80
2010,06,23,06,20,12.90
2010,06,23,06,21,12.90
2010,06,23,06,22,13.00
2010,06,23,06,23,13.00
2010,06,23,06,24,13.10
2010,06,23,06,25,13.10
2010,06,23,06,26,13.10
2010,06,23,06,27,13.20
2010,06,23,06,28,13.20
2010,06,23,06,29,13.20
2010,06,23,06,30,13.30
2010,06,23,06,31,13.30
2010,06,23,06,32,13.30
2010,06,23,06,33,13.30
2010,06,23,06,34,13.30
2010,06,23,06,35,13.30
2010,06,23,06,36,13.40
2010,06,23,06,37,13.40
2010,06,23,06,38,13.40
2010,06,23,06,39,13.40
2010,06,23,06,40,13.50
2010,06,23,06,41,13.50
2010,06,23,06,42,13.60
2010,06,23,06,43,13.60
2010,06,23,06,44,13.60
2010,06,23,06,45,13.60
2010,06,23,06,46,13.60
2010,06,23,06,47,13.70
2010,06,23,06,48,13.70
2010,06,23,06,49,13.70
2010,06,23,06,50,13.70
2010,06,23,06,51,13.80
2010,06,23,06,52,13.80
2010,06,23,06,53,13.80
2010,06,23,06,54,13.90
2010,06,23,06,55,13.90
2010,06,23,06,56,13.90
2010,06,23,06,57,14.00
2010,06,23,06,58,14.00
2010,06,23,06,59,14.10
2010,06,23,07,00,14.10
2010,06,23,07,01,14.20
2010,06,23,07,02,14.20
2010,06,23,07,03,14.20
2010,06,23,07,04,14.30
2010,06,23,07,05,14.30
2010,06,23,07,06,14.40
2010,06,23,07,07,14.40
2010,06,23,07,08,14.40
2010,06,23,07,09,14.50
2010,06,23,07,10,14.60
2010,06,23,07,11,14.60
2010,06,23,07,12,14.70
2010,06,23,07,13,14.70
2010,06,23,07,14,14.80
2010,06,23,07,15,14.80
2010,06,23,07,16,14.90
2010,06,23,07,17,15.00
2010,06,23,07,18,15.00
2010,06,23,07,19,15.00
2010,06,23,07,20,15.00
2010,06,23,07,21,15.10
2010,06,23,07,22,15.20
2010,06,23,07,23,15.30
2010,06,23,07,24,15.30
2010,06,23,07,25,15.40
2010,06,23,07,26,15.40
2010,06,23,07,27,15.50
2010,06,23,07,28,15.60
2010,06,23,07,29,15.60
2010,06,23,07,30,15.70
2010,06,23,07,31,15.70
2010,06,23,07,32,15.80
2010,06,23,07,33,15.80
2010,06,23,07,34,15.90
2010,06,23,07,35,16.00
2010,06,23,07,36,16.00
2010,06,23,07,37,16.10
2010,06,23,07,38,16.20
2010,06,23,07,39,16.20
2010,06,23,07,40,16.20
2010,06,23,07,41,16.30
2010,06,23,07,42,16.30
2010,06,23,07,43,16.30
2010,06,23,07,44,16.40
2010,06,23,07,45,16.40
2010,06,23,07,46,16.50
2010,06,23,07,47,16.50
2010,06,23,07,48,16.50
2010,06,23,07,49,16.60
2010,06,23,07,50,16.60
2010,06,23,07,51,16.60
2010,06,23,07,52,16.70
2010,06,23,07,53,16.70
2010,06,23,07,54,16.70
2010,06,23,07,55,16.70
2010,06,23,07,56,16.80
2010,06,23,07,57,16.80
2010,06,23,07,58,16.80
2010,06,23,07,59,16.80
2010,06,23,08,00,16.80
2010,06,23,08,01,16.90
2010,06,23,08,02,16.90
2010,06,23,08,03,16.90
2010,06,23,08,04,16.90
2010,06,23,08,05,17.00
2010,06,23,08,06,17.00
2010,06,23,08,07,17.00
2010,06,23,08,08,17.10
2010,06,23,08,09,17.10
2010,06,23,08,10,17.20
2010,06,23,08,11,17.20
2010,06,23,08,12,17.10
2010,06,23,08,13,16.90
2010,06,23,08,14,16.60
2010,06,23,08,15,16.30
2010,06,23,08,16,16.10
2010,06,23,08,17,15.80
2010,06,23,08,18,15.60
2010,06,23,08,19,15.30
2010,06,23,08,20,15.10
2010,06,23,08,21,15.00
2010,06,23,08,22,14.90
2010,06,23,08,23,14.80
2010,06,23,08,24,14.70
2010,06,23,08,25,14.60
2010,06,23,08,26,14.60
2010,06,23,08,27,14.50
2010,06,23,08,28,14.50
2010,06,23,08,29,14.50
2010,06,23,08,30,14.60
2010,06,23,08,31,14.60
2010,06,23,08,32,14.60
2010,06,23,08,33,14.60
2010,06,23,08,34,14.60
2010,06,23,08,35,14.70
2010,06,23,08,36,14.70
2010,06,23,08,37,14.60
2010,06,23,08,38,14.60
2010,06,23,08,39,14.60
2010,06,23,08,40,14.60
2010,06,23,08,41,14.60
2010,06,23,08,42,14.70
2010,06,23,08,43,14.70
2010,06,23,08,44,14.80
2010,06,23,08,45,14.90
2010,06,23,08,46,15.00
2010,06,23,08,47,15.00
2010,06,23,08,48,15.10
2010,06,23,08,49,15.30
2010,06,23,08,50,15.50
2010,06,23,08,51,15.70
2010,06,23,08,52,15.90
2010,06,23,08,53,16.00
2010,06,23,08,54,16.20
2010,06,23,08,55,16.30
2010,06,23,08,56,16.50
2010,06,23,08,57,16.60
2010,06,23,08,58,16.80
2010,06,23,08,59,16.90
2010,06,23,09,00,16.90
2010,06,23,09,01,17.00
2010,06,23,09,02,17.10
2010,06,23,09,03,17.10
2010,06,23,09,04,17.20
2010,06,23,09,05,17.20
2010,06,23,09,06,17.30
2010,06,23,09,07,17.40
2010,06,23,09,08,17.50
2010,06,23,09,09,17.50
2010,06,23,09,10,17.50
2010,06,23,09,11,17.60
2010,06,23,09,12,17.60
2010,06,23,09,13,17.60
2010,06,23,09,14,17.60
2010,06,23,09,15,17.70
2010,06,23,09,16,17.70
2010,06,23,09,17,17.70
2010,06,23,09,18,17.80
2010,06,23,09,19,17.80
2010,06,23,09,20,17.80
2010,06,23,09,21,17.90
2010,06,23,09,22,17.90
2010,06,23,09,23,17.90
2010,06,23,09,24,18.00
2010,06,23,09,25,18.00
2010,06,23,09,26,18.10
2010,06,23,09,27,18.10
2010,06,23,09,28,18.10
2010,06,23,09,29,18.10
2010,06,23,09,30,18.10
2010,06,23,09,31,18.10
2010,06,23,09,32,18.20
2010,06,23,09,33,18.20
2010,06,23,09,34,18.20
2010,06,23,09,35,18.30
2010,06,23,09,36,18.30
2010,06,23,09,37,18.40
2010,06,23,09,38,18.50
2010,06,23,09,39,18.60
2010,06,23,09,40,18.70
2010,06,23,09,41,18.80
2010,06,23,09,42,18.90
2010,06,23,09,43,19.00
2010,06,23,09,44,19.10
2010,06,23,09,45,19.20
2010,06,23,09,46,19.20
2010,06,23,09,47,19.30
2010,06,23,09,48,19.40
2010,06,23,09,49,19.40
2010,06,23,09,50,19.50
2010,06,23,09,51,19.60
2010,06,23,09,52,19.70
2010,06,23,09,53,19.80
2010,06,23,09,54,19.90
2010,06,23,09,55,20.00
2010,06,23,09,56,20.10
2010,06,23,09,57,20.20
2010,06,23,09,58,20.20
2010,06,23,09,59,20.30
2010,06,23,10,00,20.30
2010,06,23,10,01,20.50
2010,06,23,10,02,20.60
2010,06,23,10,03,20.60
2010,06,23,10,04,20.80
2010,06,23,10,05,20.80
2010,06,23,10,06,20.90
2010,06,23,10,07,21.00
2010,06,23,10,08,21.10
2010,06,23,10,09,21.10
2010,06,23,10,10,21.20
2010,06,23,10,11,21.30
2010,06,23,10,12,21.40
2010,06,23,10,13,21.50
2010,06,23,10,14,21.50
2010,06,23,10,15,21.30
2010,06,23,10,16,21.20
2010,06,23,10,17,21.10
2010,06,23,10,18,20.90
2010,06,23,10,19,20.70
2010,06,23,10,20,20.40
2010,06,23,10,21,20.20
2010,06,23,10,22,20.00
2010,06,23,10,23,19.80
2010,06,23,10,24,19.60
2010,06,23,10,25,19.40
2010,06,23,10,26,19.30
2010,06,23,10,27,19.20
2010,06,23,10,28,19.20
2010,06,23,10,29,19.20
2010,06,23,10,30,19.20
2010,06,23,10,31,19.20
2010,06,23,10,32,19.30
2010,06,23,10,33,19.20
2010,06,23,10,34,19.20
2010,06,23,10,35,19.20
2010,06,23,10,36,19.20
2010,06,23,10,37,19.30
2010,06,23,10,38,19.30
2010,06,23,10,39,19.30
2010,06,23,10,40,19.30
2010,06,23,10,41,19.40
2010,06,23,10,42,19.40
2010,06,23,10,43,19.30
2010,06,23,10,44,19.40
2010,06,23,10,45,19.50
2010,06,23,10,46,19.60
2010,06,23,10,47,19.70
2010,06,23,10,48,19.80
2010,06,23,10,49,19.80
2010,06,23,10,50,19.80
2010,06,23,10,51,19.80
2010,06,23,10,52,19.90
2010,06,23,10,53,19.90
2010,06,23,10,54,20.00
2010,06,23,10,55,20.00
2010,06,23,10,56,20.10
2010,06,23,10,57,20.20
2010,06,23,10,58,20.20
2010,06,23,10,59,20.20
2010,06,23,11,00,20.30
2010,06,23,11,01,20.30
2010,06,23,11,02,20.30
2010,06,23,11,03,20.30
2010,06,23,11,04,20.30
2010,06,23,11,05,20.40
2010,06,23,11,06,20.50
2010,06,23,11,07,20.60
2010,06,23,11,08,20.70
2010,06,23,11,09,20.80
2010,06,23,11,10,20.80
2010,06,23,11,11,20.80
2010,06,23,11,12,20.80
2010,06,23,11,13,20.80
2010,06,23,11,14,20.80
2010,06,23,11,15,20.80
2010,06,23,11,16,20.80
2010,06,23,11,17,20.90
2010,06,23,11,18,21.00
2010,06,23,11,19,21.10
2010,06,23,11,20,21.10
2010,06,23,11,21,21.20
2010,06,23,11,22,21.10
2010,06,23,11,23,20.90
2010,06,23,11,24,20.80
2010,06,23,11,25,20.70
2010,06,23,11,26,20.60
2010,06,23,11,27,20.60
2010,06,23,11,28,20.60
2010,06,23,11,29,20.60
2010,06,23,11,30,20.60
2010,06,23,11,31,20.60
2010,06,23,11,32,20.50
2010,06,23,11,33,20.50
2010,06,23,11,34,20.60
2010,06,23,11,35,20.70
2010,06,23,11,36,20.80
2010,06,23,11,37,20.90
2010,06,23,11,38,20.80
2010,06,23,11,39,20.80
2010,06,23,11,40,20.80
2010,06,23,11,41,20.70
2010,06,23,11,42,20.70
2010,06,23,11,43,20.60
2010,06,23,11,44,20.40
2010,06,23,11,45,20.30
2010,06,23,11,46,20.20
2010,06,23,11,47,20.10
2010,06,23,11,48,20.10
2010,06,23,11,49,20.20
2010,06,23,11,50,20.20
2010,06,23,11,51,20.20
2010,06,23,11,52,20.30
2010,06,23,11,53,20.30
2010,06,23,11,54,20.30
2010,06,23,11,55,20.30
2010,06,23,11,56,20.30
2010,06,23,11,57,20.30
2010,06,23,11,58,20.30
2010,06,23,11,59,20.40
2010,06,23,12,00,20.50
2010,06,23,12,01,20.60
2010,06,23,12,02,20.80
2010,06,23,12,03,20.80
2010,06,23,12,04,20.80
2010,06,23,12,05,20.70
2010,06,23,12,06,20.60
2010,06,23,12,07,20.50
2010,06,23,12,08,20.40
2010,06,23,12,09,20.40
2010,06,23,12,10,20.50
2010,06,23,12,11,20.50
2010,06,23,12,12,20.70
2010,06,23,12,13,20.80
2010,06,23,12,14,20.80
2010,06,23,12,15,20.80
2010,06,23,12,16,20.80
2010,06,23,12,17,20.80
2010,06,23,12,18,20.80
2010,06,23,12,19,20.80
2010,06,23,12,20,20.80
2010,06,23,12,21,20.70
2010,06,23,12,22,20.60
2010,06,23,12,23,20.60
2010,06,23,12,24,20.70
2010,06,23,12,25,20.60
2010,06,23,12,26,20.60
2010,06,23,12,27,20.60
2010,06,23,12,28,20.60
2010,06,23,12,29,20.50
2010,06,23,12,30,20.40
2010,06,23,12,31,20.30
2010,06,23,12,32,20.30
2010,06,23,12,33,20.20
2010,06,23,12,34,20.20
2010,06,23,12,35,20.10
2010,06,23,12,36,20.20
2010,06,23,12,37,20.20
2010,06,23,12,38,20.30
2010,06,23,12,39,20.20
2010,06,23,12,40,20.30
2010,06,23,12,41,20.20
2010,06,23,12,42,20.20
2010,06,23,12,43,20.10
2010,06,23,12,44,20.00
2010,06,23,12,45,20.10
2010,06,23,12,46,20.10
2010,06,23,12,47,20.10
2010,06,23,12,48,20.10
2010,06,23,12,49,20.10
2010,06,23,12,50,20.10
2010,06,23,12,51,20.20
2010,06,23,12,52,20.20
2010,06,23,12,53,20.30
2010,06,23,12,54,20.40
2010,06,23,12,55,20.40
2010,06,23,12,56,20.40
2010,06,23,12,57,20.50
2010,06,23,12,58,20.60
2010,06,23,12,59,20.70
2010,06,23,13,00,20.80
2010,06,23,13,01,20.70
2010,06,23,13,02,20.70
2010,06,23,13,03,20.70
2010,06,23,13,04,20.70
2010,06,23,13,05,20.60
2010,06,23,13,06,20.60
2010,06,23,13,07,20.60
2010,06,23,13,08,20.60
2010,06,23,13,09,20.60
2010,06,23,13,10,20.60
2010,06,23,13,11,20.60
2010,06,23,13,12,20.60
2010,06,23,13,13,20.60
2010,06,23,13,14,20.60
2010,06,23,13,15,20.60
2010,06,23,13,16,20.60
2010,06,23,13,17,20.60
2010,06,23,13,18,20.60
2010,06,23,13,19,20.60
2010,06,23,13,20,20.80
2010,06,23,13,21,20.90
2010,06,23,13,22,21.00
2010,06,23,13,23,21.10
2010,06,23,13,24,21.20
2010,06,23,13,25,21.20
2010,06,23,13,26,21.20
2010,06,23,13,27,21.20
2010,06,23,13,28,21.30
2010,06,23,13,29,21.30
2010,06,23,13,30,21.20
2010,06,23,13,31,21.20
2010,06,23,13,32,21.20
2010,06,23,13,33,21.10
2010,06,23,13,34,21.10
2010,06,23,13,35,21.10
2010,06,23,13,36,21.10
2010,06,23,13,37,21.00
2010,06,23,13,38,21.00
2010,06,23,13,39,21.00
2010,06,23,13,40,21.00
2010,06,23,13,41,21.10
2010,06,23,13,42,21.10
2010,06,23,13,43,21.20
2010,06,23,13,44,21.30
2010,06,23,13,45,21.50
2010,06,23,13,46,21.60
2010,06,23,13,47,21.70
2010,06,23,13,48,21.70
2010,06,23,13,49,21.70
2010,06,23,13,50,21.70
2010,06,23,13,51,21.70
2010,06,23,13,52,21.80
2010,06,23,13,53,21.90
2010,06,23,13,54,21.90
2010,06,23,13,55,21.90
2010,06,23,13,56,21.80
2010,06,23,13,57,21.70
2010,06,23,13,58,21.60
2010,06,23,13,59,21.60
2010,06,23,14,00,21.60
2010,06,23,14,01,21.60
2010,06,23,14,02,21.70
2010,06,23,14,03,21.80
2010,06,23,14,04,21.80
2010,06,23,14,05,21.80
2010,06,23,14,06,21.80
2010,06,23,14,07,21.90
2010,06,23,14,08,21.90
2010,06,23,14,09,22.00
2010,06,23,14,10,22.10
2010,06,23,14,11,22.20
2010,06,23,14,12,22.20
2010,06,23,14,13,22.30
2010,06,23,14,14,22.30
2010,06,23,14,15,22.40
2010,06,23,14,16,22.40
2010,06,23,14,17,22.40
2010,06,23,14,18,22.40
2010,06,23,14,19,22.40
2010,06,23,14,20,22.40
2010,06,23,14,21,22.40
2010,06,23,14,22,22.30
2010,06,23,14,23,22.20
2010,06,23,14,24,22.10
2010,06,23,14,25,22.00
2010,06,23,14,26,22.00
2010,06,23,14,27,21.90
2010,06,23,14,28,21.80
2010,06,23,14,29,21.70
2010,06,23,14,30,21.70
2010,06,23,14,31,21.60
2010,06,23,14,32,21.60
2010,06,23,14,33,21.60
2010,06,23,14,34,21.60
2010,06,23,14,35,21.70
2010,06,23,14,36,21.80
2010,06,23,14,37,21.80
2010,06,23,14,38,21.80
2010,06,23,14,39,21.80
2010,06,23,14,40,21.80
2010,06,23,14,41,21.90
2010,06,23,14,42,22.00
2010,06,23,14,43,22.10
2010,06,23,14,44,22.20
2010,06,23,14,45,22.20
2010,06,23,14,46,22.20
2010,06,23,14,47,22.20
2010,06,23,14,48,22.30
2010,06,23,14,49,22.30
2010,06,23,14,50,22.40
2010,06,23,14,51,22.40
2010,06,23,14,52,22.40
2010,06,23,14,53,22.40
2010,06,23,14,54,22.30
2010,06,23,14,55,22.30
2010,06,23,14,56,22.20
2010,06,23,14,57,22.10
2010,06,23,14,58,22.10
2010,06,23,14,59,21.90
2010,06,23,15,00,21.80
2010,06,23,15,01,21.70
2010,06,23,15,02,21.40
2010,06,23,15,03,21.10
2010,06,23,15,04,20.90
2010,06,23,15,05,20.70
2010,06,23,15,06,20.60
2010,06,23,15,07,20.60
2010,06,23,15,08,20.60
2010,06,23,15,09,20.60
2010,06,23,15,10,20.60
2010,06,23,15,11,20.60
2010,06,23,15,12,20.50
2010,06,23,15,13,20.50
2010,06,23,15,14,20.60
2010,06,23,15,15,20.60
2010,06,23,15,16,20.60
2010,06,23,15,17,20.70
2010,06,23,15,18,20.70
2010,06,23,15,19,20.70
2010,06,23,15,20,20.70
2010,06,23,15,21,20.70
2010,06,23,15,22,20.70
2010,06,23,15,23,20.70
2010,06,23,15,24,20.70
2010,06,23,15,25,20.60
2010,06,23,15,26,20.60
2010,06,23,15,27,20.50
2010,06,23,15,28,20.50
2010,06,23,15,29,20.60
2010,06,23,15,30,20.60
2010,06,23,15,31,20.60
2010,06,23,15,32,20.50
2010,06,23,15,33,20.50
2010,06,23,15,34,20.40
2010,06,23,15,35,20.40
2010,06,23,15,36,20.30
2010,06,23,15,37,20.30
2010,06,23,15,38,20.30
2010,06,23,15,39,20.30
2010,06,23,15,40,20.30
2010,06,23,15,41,20.30
2010,06,23,15,42,20.30
2010,06,23,15,43,20.30
2010,06,23,15,44,20.30
2010,06,23,15,45,20.20
2010,06,23,15,46,20.20
2010,06,23,15,47,20.10
2010,06,23,15,48,20.10
2010,06,23,15,49,20.20
2010,06,23,15,50,20.20
2010,06,23,15,51,20.20
2010,06,23,15,52,20.20
2010,06,23,15,53,20.20
2010,06,23,15,54,20.20
2010,06,23,15,55,20.20
2010,06,23,15,56,20.20
2010,06,23,15,57,20.20
2010,06,23,15,58,20.20
2010,06,23,15,59,20.30
2010,06,23,16,00,20.30
2010,06,23,16,01,20.30
2010,06,23,16,02,20.40
2010,06,23,16,03,20.40
2010,06,23,16,04,20.50
2010,06,23,16,05,20.60
2010,06,23,16,06,20.60
2010,06,23,16,07,20.60
2010,06,23,16,08,20.60
2010,06,23,16,09,20.60
2010,06,23,16,10,20.60
2010,06,23,16,11,20.70
2010,06,23,16,12,20.70
2010,06,23,16,13,20.70
2010,06,23,16,14,20.60
2010,06,23,16,15,20.60
2010,06,23,16,16,20.40
2010,06,23,16,17,20.30
2010,06,23,16,18,20.10
2010,06,23,16,19,19.90
2010,06,23,16,20,19.80
2010,06,23,16,21,19.70
2010,06,23,16,22,19.60
2010,06,23,16,23,19.50
2010,06,23,16,24,19.40
2010,06,23,16,25,19.30
2010,06,23,16,26,19.30
2010,06,23,16,27,19.30
2010,06,23,16,28,19.20
2010,06,23,16,29,19.20
2010,06,23,16,30,19.10
2010,06,23,16,31,19.10
2010,06,23,16,32,19.10
2010,06,23,16,33,19.10
2010,06,23,16,34,19.00
2010,06,23,16,35,19.00
2010,06,23,16,36,19.00
2010,06,23,16,37,19.00
2010,06,23,16,38,18.90
2010,06,23,16,39,18.90
2010,06,23,16,40,18.90
2010,06,23,16,41,19.00
2010,06,23,16,42,19.00
2010,06,23,16,43,19.10
2010,06,23,16,44,19.10
2010,06,23,16,45,19.10
2010,06,23,16,46,19.10
2010,06,23,16,47,19.10
2010,06,23,16,48,19.10
2010,06,23,16,49,19.00
2010,06,23,16,50,18.90
2010,06,23,16,51,18.80
2010,06,23,16,52,18.70
2010,06,23,16,53,18.60
2010,06,23,16,54,18.50
2010,06,23,16,55,18.50
2010,06,23,16,56,18.40
2010,06,23,16,57,18.30
2010,06,23,16,58,18.30
2010,06,23,16,59,18.30
2010,06,23,17,00,18.30
2010,06,23,17,01,18.20
2010,06,23,17,02,18.20
2010,06,23,17,03,18.20
2010,06,23,17,04,18.10
2010,06,23,17,05,18.20
2010,06,23,17,06,18.20
2010,06,23,17,07,18.20
2010,06,23,17,08,18.10
2010,06,23,17,09,18.10
2010,06,23,17,10,18.00
2010,06,23,17,11,17.90
2010,06,23,17,12,17.80
2010,06,23,17,13,17.70
2010,06,23,17,14,17.70
2010,06,23,17,15,17.60
2010,06,23,17,16,17.50
2010,06,23,17,17,17.50
2010,06,23,17,18,17.40
2010,06,23,17,19,17.40
2010,06,23,17,20,17.40
2010,06,23,17,21,17.40
2010,06,23,17,22,17.40